This is the latest recevied weather packets stored in our database for station/object SQ9SMC-13. If no packets are shown the sender has not sent any weather packets the latest 10 day(s).
| Time | Temp. | Humidity | Pressure | Rain* | Wind** | Luminosity | Snow |
|---|---|---|---|---|---|---|---|
| 1777915503 | 22.78° C | 38% | 1014.2 hPa | 0 mm | - | 27 W/m² | - |
| 1777915202 | 22.78° C | 38% | 1014 hPa | 0 mm | - | 31 W/m² | - |
| 1777914902 | 22.78° C | 38% | 1014.1 hPa | 0 mm | - | 33 W/m² | - |
| 1777914602 | 22.78° C | 37% | 1014 hPa | 0 mm | - | 35 W/m² | - |
| 1777914302 | 22.78° C | 37% | 1013.8 hPa | 0 mm | - | 39 W/m² | - |
| 1777914005 | 23.33° C | 37% | 1014.1 hPa | 0 mm | - | 43 W/m² | - |
| 1777913703 | 23.33° C | 37% | 1014.1 hPa | 0 mm | - | 47 W/m² | - |
| 1777913403 | 23.89° C | 38% | 1013.8 hPa | 0 mm | - | 50 W/m² | - |
| 1777913103 | 23.89° C | 37% | 1014 hPa | 0 mm | - | 56 W/m² | - |
| 1777912803 | 24.44° C | 37% | 1013.9 hPa | 0 mm | - | 67 W/m² | - |
| 1777912504 | 24.44° C | 37% | 1014 hPa | 0 mm | - | 79 W/m² | - |
| 1777912203 | 24.44° C | 36% | 1014 hPa | 0 mm | - | 87 W/m² | - |
| 1777911904 | 24.44° C | 35% | 1014.1 hPa | 0 mm | - | 100 W/m² | - |
| 1777911603 | 24.44° C | 37% | 1014 hPa | 0 mm | - | 105 W/m² | - |
| 1777911303 | 25° C | 35% | 1014 hPa | 0 mm | - | 105 W/m² | - |
| 1777911002 | 24.44° C | 35% | 1014 hPa | 0 mm | - | 112 W/m² | - |
| 1777910706 | 25° C | 35% | 1014 hPa | 0 mm | - | 139 W/m² | - |
| 1777910405 | 24.44° C | 36% | 1014.1 hPa | 0 mm | - | 131 W/m² | - |
| 1777910103 | 25° C | 35% | 1014 hPa | 0 mm | - | 120 W/m² | - |
| 1777909803 | 25° C | 34% | 1014.1 hPa | 0 mm | - | 124 W/m² | - |
| 1777909502 | 25.56° C | 34% | 1014.2 hPa | 0 mm | - | 172 W/m² | - |
| 1777909202 | 25° C | 36% | 1013.9 hPa | 0 mm | - | 179 W/m² | - |
| 1777908903 | 25° C | 35% | 1014.1 hPa | 0 mm | - | 136 W/m² | - |
| 1777908603 | 25° C | 34% | 1014.2 hPa | 0 mm | - | 202 W/m² | - |
| 1777908302 | 25° C | 35% | 1014.4 hPa | 0 mm | - | 177 W/m² | - |
* Rain latest hour (hover to see other rain measurements)
** Current wind speed in m/s (hover to see current wind gust speed)